Regional Weather Roundup
Issued by NWS

Home | Current Version | Previous Version | Text Only | Print | Product List | Glossary Off
Versions: 1 2 3 4 5 6 7 8 9 10 11 12 13 14 15 16 17 18 19 20 21 22 23 24 25 26 27 28 29 30 31 32 33 34 35 36 37 38 39 40 41 42 43 44 45 46 47 48 49 50

000
ASUS43 KMPX 021401
RWRMN
WEATHER ROUNDUP FOR MINNESOTA
NATIONAL WEATHER SERVICE TWIN CITIES/CHANHASSEN MN
800 AM CST MON MAR 02 2015


NOTE: "FAIR" INDICATES FEW OR NO CLOUDS BELOW 12,000 FEET WITH NO
SIGNIFICANT WEATHER AND/OR OBSTRUCTIONS TO VISIBILITY. N/A MEANS
CURRENT SKY AND/OR WEATHER CONDITIONS ARE NOT AVAILABLE.

MNZ060>063-068>070-021500-
   Twin Cities Metro

CITY           SKY/WX    TMP DP  RH WIND       PRES   REMARKS
TWIN CITIES    MOSUNNY   11   7  84 SW3       30.47S
ST PAUL        MOSUNNY   13   8  81 CALM      30.49R
CRYSTAL        MOSUNNY   11   8  88 SW3       30.46R
BLAINE         SUNNY     12  10  92 SW6       30.45R WCI   3
EDEN PRAIRIE   PTSUNNY    8   5  87 SW5       30.46R WCI   0
SOUTH ST PAUL  MOSUNNY   12   8  85 CALM      30.48R
LAKE ELMO      FAIR       5   3  92 S3        30.48R
$$
MNZ001>005-007-008-013>017-022>024-027-028-021500-
   Northwest Minnesota

CITY           SKY/WX    TMP DP  RH WIND       PRES   REMARKS
BEMIDJI        PTCLDY    -6  -9  84 CALM      30.30S
HALLOCK        MOCLDY    -6  -9  84 SE8       30.28F WCI -21
ROSEAU         PTCLDY    -6 -11  77 S5        30.28F WCI -17
WARROAD        PTCLDY    -2  -8  78 CALM      30.27F
THIEF RVR FALL MOCLDY    -2  -6  84 S7        30.30R WCI -16
CROOKSTON      MOCLDY     0  -4  85 S10       30.34S WCI -17
FOSSTON        PTCLDY    -4  -8  84 S5        30.32R WCI -15
DETROIT LAKES  MOCLDY     1   0  92 S5        30.34S WCI  -8
MOORHEAD       PTCLDY     3   1  92 SE7       30.36F WCI  -9
PARK RAPIDS    CLEAR      0  -4  83 S6        30.32S WCI -12
MAHNOMEN       FAIR      -1  -4  85 S6        30.32F WCI -12
$$
MNZ006-009>011-018-025>026-021500-
   North Central Minnesota

CITY           SKY/WX    TMP DP  RH WIND       PRES   REMARKS
BAUDETTE       MOCLDY    -8 -12  83 CALM      30.28F
FLAG ISLAND    PTCLDY    -8 -11  84 SE5       30.27F WCI -19
INTL FALLS     PTCLDY    -3  -6  87 SW5       30.31F WCI -13
WASKISH        PTCLDY    -2  -8  78 CALM      30.30F
BIG FORK       PTCLDY    -8 -11  84 CALM      30.32S
LONGVILLE      FAIR      -9 -13  84 CALM      30.34S
GRAND RAPIDS   MOSUNNY   -6  -9  84 CALM      30.31F
CRANE LAKE     MOSUNNY   -8 -11  84 CALM      30.36S
ORR            MOSUNNY    0  -6  78 CALM      30.29S
COOK           MOSUNNY   -8 -11  84 CALM      30.33S
WALKER         FAIR      -3  -7  84 CALM      30.32F
$$
MNZ012-019>021-037-021500-
   Northeast Minnesota

CITY           SKY/WX    TMP DP  RH WIND       PRES   REMARKS
DULUTH         MOSUNNY    5   0  79 W9        30.34R WCI  -9
ELY            MOSUNNY    0  -4  85 CALM      30.32R
HIBBING        PTSUNNY   -6 -11  79 CALM      30.33S
EVELETH        MOSUNNY   -6  -9  84 W3        30.34S
DULUTH HARBOR  MOSUNNY    7   3  85 CALM      30.43R
SILVER BAY     MOSUNNY   10   1  67 W5        30.34R WCI   2
GRAND MARAIS     N/A     14   5  67 W6        30.36R WCI   5
G MARAIS ARPRT SUNNY      7   0  72 W6        30.25R WCI  -3
$$
MNZ029>031-032-039>041-046>048-054>057-064-021500-
   West Central Minnesota

CITY           SKY/WX    TMP DP  RH WIND       PRES   REMARKS
FERGUS FALLS   MOCLDY     3  -2  78 SE7       30.42S WCI  -9
MORRIS         PTCLDY     5   0  78 SE6       30.40R WCI  -6
ALEXANDRIA     MOCLDY     4   1  88 S5        30.38S WCI  -5
ELBOW LAKE     FAIR       4   0  83 SE7       30.38R WCI  -8
WADENA         MOCLDY    -2  -6  84 CALM      30.35F
GLENWOOD       PTCLDY     3   1  92 S3        30.40R
APPLETON       PTCLDY     1  -2  85 S3        30.43S
BENSON         MOCLDY     1  -2  85 CALM      30.42R
ORTONVILLE     PTCLDY     7   0  72 S5        30.41S WCI  -2
MADISON        PTCLDY     7   1  78 CALM      30.43R
WILLMAR        FAIR       3   0  85 CALM      30.44R
$$
MNZ033>034-036-042>043-049>051-058-059-021500-
   Central Minnesota

CITY           SKY/WX    TMP DP  RH WIND       PRES   REMARKS
ST CLOUD       PTSUNNY    6   3  87 SW3       30.43S
SAUK CENTRE    FAIR       6   3  88 CALM      30.41R
PAYNESVILLE    MOSUNNY    1  -1  91 CALM      30.43S
AITKIN         MOSUNNY    1  -4  78 CALM      30.36R
PINE RIVER     PTCLDY    -8 -11  84 CALM      30.38R
BRAINERD       MOSUNNY   -3  -6  87 SW3       30.38R
STAPLES        PTCLDY    -2  -6  84 CALM      30.37R
LONG PRAIRIE   FAIR       3   1  92 S5        30.40R WCI  -6
LITTLE FALLS   PTSUNNY    3   0  85 CALM      30.41S
LITCHFIELD     MOSUNNY    7   5  92 CALM      30.44S
MAPLE LAKE     MOSUNNY   10   9  92 SW5       30.45S WCI   2
$$
MNZ037-044-045-052-053-021500-
   East Central Minnesota

CITY           SKY/WX    TMP DP  RH WIND       PRES   REMARKS
PRINCETON      PTSUNNY    3   0  85 CALM      30.42S
MORA           PTSUNNY    0  -8  71 CALM      30.43R
CAMBRIDGE      PTSUNNY    0  -8  71 CALM      30.42S
RUSH CITY      PTSUNNY    5   2  88 CALM      30.44R
MOOSE LAKE     MOSUNNY   -2  -6  84 CALM      30.37S
HINCKLEY       FAIR       0  -4  85 CALM      30.42R
CLOQUET        MOSUNNY    7   1  78 W6        30.36R WCI  -3
MCGREGOR       MOSUNNY    5   3  92 CALM      30.37R
$$
MNZ071>073-080-081-089-090-097-098-021500-
   Southwest Minnesota

CITY           SKY/WX    TMP DP  RH WIND       PRES   REMARKS
MONTEVIDEO     MOCLDY     9   7  92 W6        30.45R WCI  -1
GRANITE FALLS  MOCLDY     4   1  86 S7        30.46R WCI  -8
CANBY          MOCLDY     6   2  83 S3        30.44R
MARSHALL       MOCLDY     7   1  78 SW5       30.45R WCI  -2
REDWOOD FALLS  PTSUNNY    4   1  88 S6        30.45R WCI  -7
OLIVIA         CLOUDY     5   3  92 S3        30.45R
PIPESTONE      PTCLDY     7   5  92 CALM      30.39R
WINDOM         MOSUNNY    1  -2  85 CALM      30.44R
WORTHINGTON    PTSUNNY   10   3  72 S5        30.44R WCI   2
JACKSON        MOSUNNY    3   0  85 SW5       30.44R WCI  -6
TRACY          MOCLDY    10   5  80 SW7       30.44R WCI  -1
SLAYTON        MOCLDY     5   1  84 CALM      30.42R
$$
MNZ065>067-074>077-082>085-091>093-021500-
   South Central Minnesota

CITY           SKY/WX    TMP DP  RH WIND       PRES   REMARKS
MANKATO        MOSUNNY    3   0  85 CALM      30.47R
NEW ULM        PTSUNNY    5   1  85 CALM      30.46S
ST JAMES       PTSUNNY    7   1  78 S3        30.47S
FAIRMONT       PTSUNNY    5   1  85 SW3       30.44F
GLENCOE        MOSUNNY    7   5  91 CALM      30.46R
FARIBAULT      PTSUNNY    3   0  85 CALM      30.47R
OWATONNA       PTSUNNY    7   3  85 CALM      30.47R
WASECA         PTSUNNY    0  -4  85 CALM      30.49R
ALBERT LEA       N/A      3   1  92 CALM      30.46S
$$
MNZ078>079-086>088-094>096-021500-
   Southeast Minnesota

CITY           SKY/WX    TMP DP  RH WIND       PRES   REMARKS
ROCHESTER      MOSUNNY    4   4 100 W3        30.45R FOG
RED WING       MOSUNNY    7   1  78 CALM      30.48R
STANTON        MOSUNNY    4   0  83 CALM      30.46R
DODGE CENTER   PTSUNNY    1   0  92 W3        30.44S FOG
WINONA         PTSUNNY   12   9  85 CALM      30.52R
AUSTIN         PTSUNNY    1  -2  85 SW5       30.47R WCI  -8
PRESTON        MOSUNNY    6   4  89 CALM      30.46R
$$
ABBREVIATIONS USED IN REMARKS
   TC - TEMPERATURES IN CELSIUS
  WCI - WIND CHILL INDEX
   HX - HEAT INDEX
  VSB - VISIBILITY
$$


USA.gov is the U.S. government's official web portal to all federal, state and local government web resources and services.